Location: George Washington National Forest Helicopter Landing Site
(38.6463°N, 79.0851°W)
Time: 18:09:43
(UTC-04:00)

S-56A Canister/Altair - Visible Passes

Search period start: 21 August 2019 00:00
Search period end: 31 August 2019 00:00
Orbit: 633 x 2499 km, 38.9° (Epoch: 21 August)

Date Brightness Start Highest point End Pass type
(mag) Time Alt. Az. Time Alt. Az. Time Alt. Az.
21 Aug 10.0 03:21:34 18° SE 03:21:34 18° SE 03:23:28 10° SE visible
21 Aug 9.4 05:19:06 19° SW 05:20:34 20° SSW 05:26:23 10° SSE visible
21 Aug 9.0 20:30:19 10° S 20:33:31 16° SSE 20:36:22 10° ESE visible
21 Aug 8.8 22:32:09 10° WSW 22:34:15 24° SW 22:34:15 24° SW visible
22 Aug 9.6 04:49:17 20° SSW 04:49:17 20° SSW 04:53:32 10° SSE visible
22 Aug 7.5 21:59:28 10° SW 22:03:48 47° S 22:03:48 47° S visible
23 Aug 10.1 04:19:30 13° SSE 04:19:30 13° SSE 04:20:41 10° SSE visible
23 Aug 7.6 21:26:45 10° SW 21:31:49 45° SSE 21:33:13 34° ESE visible
24 Aug 7.9 20:53:57 10° SW 20:59:17 40° SSE 21:02:33 16° E visible
24 Aug 9.0 22:58:01 10° W 23:00:01 24° W 23:00:01 24° W visible
25 Aug 8.2 20:21:06 10° SW 20:26:44 37° SSE 20:31:07 10° E visible
25 Aug 7.6 22:25:15 10° W 22:29:15 55° WSW 22:29:15 55° WSW visible
26 Aug 7.1 21:52:23 10° WSW 21:57:44 81° S 21:58:26 63° E visible
27 Aug 7.3 21:19:26 10° WSW 21:25:12 77° SSE 21:27:34 29° E visible
27 Aug 9.8 23:24:08 10° W 23:25:00 15° W 23:25:00 15° W visible
28 Aug 7.5 20:46:25 10° WSW 20:52:38 72° SSE 20:56:39 14° E visible
28 Aug 8.8 22:51:23 10° W 22:54:05 31° W 22:54:05 31° W visible
29 Aug 7.8 20:13:18 10° WSW 20:20:03 67° SSE 20:24:55 10° E visible
29 Aug 7.5 22:18:31 10° W 22:23:08 66° W 22:23:08 66° W visible
30 Aug 7.3 21:45:33 10° W 21:51:15 86° N 21:52:09 59° E visible
